Torna al catalogo

STARLINK-35568

AttivoComunicazioniVLEO
NORAD 66473·PAYLOAD·🇺🇸 United States

Lanciato Nov 15, 2025 da Cape Canaveral Space Force Station

Loading…

Prossimi Passaggi (prossime 24 ore)

TLE

AggiornatoSource: CelesTrak SupGP

Epoca: Sep 15, 2026, 02:51 UTC

1 66473C 25262T   26258.11923611  .00038076  00000+0  13786-2 0  2588
2 66473  43.0031 306.7589 0001704 272.4025  53.3517 15.27571998    10

Traccia STARLINK-35568 in tempo reale con AllMySat

Download on the App Store